Location: Meanaryar
(48.4161°N, 4.7315°W)
Time: 08:39:22
(UTC+00:00)

Cosmos 1092 Rocket - Pass Details

Date: 18 January 2021
Orbit: 954 x 995 km, 83.0° (Epoch: 02 March)

Event Time Altitude Azimuth Distance (km) Brightness Sun altitude
Rises 17:49:26 0° 131° (SE) 3,660 6.7 -8.8°
Reaches altitude 10° 17:53:05 10° 110° (ESE) 2,710 5.9 -9.3°
Maximum altitude 17:56:23 15° 77° (ENE) 2,358 5.4 -9.8°
Drops below altitude 10° 17:59:40 10° 45° (NE) 2,706 5.8 -10.4°
Sets 18:03:18 0° 23° (NNE) 3,652 6.6 -10.9°
